www.pogodaiklimat.ru

Погода и климат >> Архив погоды >> Испания >> Мурсия


ПОГОДА в Мурсие

  • Прогноз погоды в Мурсие
  • Монитор погоды в Мурсие

АРХИВ ПОГОДЫ в Мурсие

Время (UTC), дата Ветер
(напр.,м/с)
 
Видим.   Явления Облачность Т
(С)
Тd
(С)
f
(%)
Тe
(С)
Тes
(С)
Комфортность P
(гПа)
Po
(гПа)
Тmin
(С)
Tmax
(С)
R
(мм)
R24
(мм)
S
(см)
04 12.06 СВ 1 19 км н/о +16.5 +12.1 75 +17 +17 1014.3 1007.0
05 12.06 СЗ 1 19 км н/о +16.3 +11.9 75 +17 +17 1014.8 1007.4
06 12.06 СЗ 1 15 км 4/1 1000 м
[Cu hum Ac trans Ci fib]
+17.4 +11.9 70 +18 +19 1014.9 1007.6 +15.9
07 12.06 В 2 15 км 3/0
[Ci fib]
+20.2 +10.3 53 +22 +26 комфорт 1015.3 1008.0
08 12.06 В 3 20 км н/о +21.1 +9.7 48 +22 +22 комфорт 1015.1 1007.9
09 12.06 СВ 4 20 км 4/0
[Ac trans Ci fib]
+22.1 +8.2 41 +23 +31 комфорт 1015.0 1007.8
10 12.06 В 4 20 км н/о +23.2 +7.7 37 +24 +24 комфорт 1014.8 1007.6
11 12.06 В 4 20 км н/о +24.3 +8.3 36 +25 +25 комфорт 1014.3 1007.1
12 12.06 В 4 25 км 1/1 1000 м
[Cu hum]
+25.4 +8.4 34 +26 +40 жарко 1013.7 1006.6
13 12.06 В 4 20 км н/о +25.0 +8.9 36 +26 +26 жарко 1013.2 1006.1
14 12.06 СВ 6 20 км н/о +25.4 +11.2 41 +27 +27 жарко 1012.8 1005.7
15 12.06 В 6 25 км 3/3 1000 м
[Cu hum]
+25.3 +12.2 44 +27 +30 жарко 1012.4 1005.3
16 12.06 В 6 20 км н/о +24.4 +13.0 49 +26 +26 жарко 1012.3 1005.2
17 12.06 В 6 20 км н/о +23.5 +13.9 55 +26 +26 жарко 1012.1 1004.9
18 12.06 В 5 30 км 4/4 1000 м
[Cu hum]
+22.3 +14.4 61 +26 +26 жарко 1012.3 1005.1 +25.5
19 12.06 В 5 20 км н/о +20.8 +14.9 69 +24 +24 комфорт 1012.6 1005.4
20 12.06 СВ 4 19 км н/о +20.2 +15.2 73 +23 +23 комфорт 1013.2 1006.0
21 12.06 В 4 19 км н/о +19.7 +15.3 76 +22 +22 комфорт 1013.8 1006.5
22 12.06 СВ 3 18 км н/о +19.6 +15.9 79 +22 +22 комфорт 1013.9 1006.6
23 12.06 СВ 3 18 км н/о +19.9 +15.9 78 +23 +23 комфорт 1013.6 1006.4
00 13.06 В 2 16 км н/о +19.7 +16.2 80 +22 +22 комфорт 1013.4 1006.2
01 13.06 СВ 3 15 км н/о +19.7 +16.0 79 +22 +22 комфорт 1012.3 1005.1
02 13.06 СВ 3 15 км н/о +19.8 +16.1 79 +23 +23 комфорт 1012.2 1005.0
03 13.06 СВ 2 16 км н/о +19.9 +15.9 78 +23 +23 комфорт 1011.7 1004.5
04 13.06 СВ 2 14 км в посл. час морось н/о +19.9 +16.3 80 +23 +23 комфорт 1012.0 1004.8 0.0
05 13.06 В 3 12 км н/о +19.5 +16.9 85 +22 +22 комфорт 1012.2 1005.0
06 13.06 В 3 12 км дымка н/о +19.7 +16.7 83 +22 +22 комфорт 1012.3 1005.1 +19.4 0.0
07 13.06 В 4 15 км н/о +20.4 +16.4 78 +24 +24 комфорт 1012.8 1005.6
08 13.06 В 4 16 км н/о +22.2 +15.5 66 +26 +26 душно 1012.9 1005.7
09 13.06 В 4 20 км 6/4 600 м
[Cu hum Ac inh Cc]
+23.6 +14.9 58 +26 +31 жарко 1012.2 1005.1
10 13.06 В 6 20 км н/о +24.8 +13.4 49 +27 +27 жарко 1011.7 1004.6
11 13.06 СВ 6 20 км н/о +26.1 +13.2 45 +28 +28 жарко 1011.1 1004.0
12 13.06 В 6 40 км 1/1 600 м
[Cu hum Cc]
+26.3 +12.4 42 +28 +35 жарко 1010.7 1003.6
13 13.06 В 5 20 км н/о +26.3 +13.4 45 +28 +28 жарко 1009.9 1002.8
14 13.06 В 6 20 км н/о +25.9 +13.1 45 +28 +28 жарко 1009.6 1002.5
15 13.06 В 6 50 км ясно +25.5 +13.4 47 +28 +28 жарко 1009.2 1002.1
16 13.06 В 6 20 км н/о +25.1 +13.0 47 +27 +27 жарко 1009.1 1002.0
17 13.06 В 5 20 км н/о +24.9 +13.4 49 +27 +27 жарко 1009.0 1001.9
18 13.06 В 4 50 км ясно +24.1 +12.7 49 +26 +27 жарко 1009.1 1002.0 +26.8
19 13.06 В 4 20 км н/о +22.9 +12.8 53 +26 +26 жарко 1009.1 1002.0
20 13.06 ЮВ 3 19 км н/о +21.6 +13.8 61 +24 +24 комфорт 1010.4 1003.2
21 13.06 Ю 1 18 км н/о +21.1 +13.5 62 +24 +24 комфорт 1011.0 1003.8
22 13.06 З 1 19 км н/о +20.7 +13.2 62 +25 +25 комфорт 1010.8 1003.6
23 13.06 З 2 17 км н/о +20.6 +13.1 62 +24 +24 комфорт 1010.5 1003.3
00 14.06 З 3 19 км н/о +20.5 +12.5 60 +23 +23 комфорт 1009.8 1002.6
01 14.06 З 5 18 км н/о +21.5 +13.9 62 +24 +24 комфорт 1009.7 1002.5
02 14.06 Ю 2 19 км в посл. час дождь н/о +21.2 +13.9 63 +24 +24 комфорт 1009.3 1002.1 0.0
03 14.06 ЮЗ 2 19 км н/о +21.2 +14.1 64 +24 +24 комфорт 1009.4 1002.2 0.0
04 14.06 ЮЗ 1 20 км н/о +21.1 +14.0 64 +24 +24 комфорт 1010.0 1002.8
05 14.06 З 2 13 км н/о +21.4 +14.5 65 +24 +24 комфорт 1010.7 1003.5
06 14.06 З 2 1000 м слаб. дождь н/о +21.3 +14.9 67 +24 +25 комфорт 1011.3 1004.1 +20.4 0.0
07 14.06 З 2 1500 м слаб. дождь н/о +19.9 +16.7 82 +23 +23 комфорт 1012.1 1004.9 1
08 14.06 ЮЗ 2 1700 м в посл. час дождь н/о +20.4 +17.6 84 +24 +24 комфорт 1012.5 1005.3 0.0
09 14.06 ЮЗ 2 20 км {дождь} 1/1 300 м
[Cu hum Ac trans]
+22.9 +17.4 71 +28 +40 душно 1012.5 1005.3 1
10 14.06 Ю 2 9000 м н/о +25.0 +15.6 56 +28 +28 жарко 1012.4 1005.3
11 14.06 Ю 1 9000 м н/о +27.6 +14.2 44 +30 +30 жарко 1012.1 1005.0
12 14.06 ЮЗ 2 50 км {дождь} 1/1 600 м
[Cu hum]
+29.7 +11.7 33 +30 +49 жарко 1011.5 1004.5
13 14.06 ЮВ 3 16 км н/о +30.4 +15.3 40 +33 +33 душно 1011.0 1004.0
14 14.06 Ю 4 н/о н/о +30.8 +14.8 38 +33 +33 душно 1010.7 1003.7
15 14.06 Ю 4 50 км 1/1 600 м
[Cu hum]
+31.1 +13.4 34 +32 +41 жарко 1010.4 1003.4
16 14.06 ЮВ 3 14 км н/о +31.2 +13.5 34 +32 +32 жарко 1010.1 1003.1
17 14.06 Ю 4 10 км н/о +30.5 +13.3 35 +32 +32 жарко 1010.2 1003.2
18 14.06 Ю 2 50 км 4/0
[Ci sp]
+29.8 +12.2 34 +31 +32 жарко 1010.6 1003.6 +31.4
19 14.06 Ю 2 16 км н/о +28.5 +13.2 39 +30 +30 жарко 1011.1 1004.1
20 14.06 Ю 1 16 км н/о +26.5 +11.8 40 +28 +28 жарко 1011.8 1004.7
21 14.06 ЮЗ 3 14 км н/о +25.2 +11.4 42 +27 +27 жарко 1012.6 1005.5
22 14.06 СЗ 2 17 км н/о +23.8 +11.8 47 +25 +25 комфорт 1013.5 1006.3
23 14.06 ЮЗ 1 16 км н/о +22.6 +11.9 51 +25 +25 комфорт 1013.9 1006.7
00 15.06 СЗ 6 19 км н/о +24.3 +5.6 30 +24 +24 комфорт 1013.8 1006.6
01 15.06 СЗ 8 18 км н/о +23.8 +4.2 28 +23 +23 комфорт 1014.0 1006.8
02 15.06 СЗ 6 20 км н/о +23.1 +4.6 30 +23 +23 комфорт 1014.5 1007.3
03 15.06 СЗ 5 20 км н/о +22.3 +5.2 33 +23 +23 комфорт 1014.9 1007.7
04 15.06 З 2 19 км н/о +21.4 +5.7 36 +22 +22 комфорт 1015.5 1008.3
05 15.06 З 2 19 км н/о +20.8 +5.2 36 +22 +22 комфорт 1016.4 1009.1
06 15.06 З 3 19 км н/о +21.8 +4.8 33 +22 +22 комфорт 1016.9 1009.7 +20.8
07 15.06 СЗ 6 20 км н/о +22.6 +5.1 32 +23 +23 комфорт 1017.7 1010.5
08 15.06 СЗ 6 19 км н/о +23.7 +5.1 30 +24 +24 комфорт 1018.2 1011.0
09 15.06 СЗ 5 >70 км ясно +25.5 +5.6 28 +25 +32 комфорт 1018.2 1011.0
10 15.06 СЗ 3 20 км н/о +26.5 +5.4 26 +26 +26 жарко 1017.8 1010.7
11 15.06 З 3 20 км н/о +27.6 +5.2 24 +27 +27 жарко 1017.5 1010.4
12 15.06 Ю 2 >70 км 1/0
[Ci sp]
+29.6 +5.6 22 +28 +48 жарко 1016.8 1009.7
13 15.06 ЮЗ 2 19 км н/о +30.9 +6.0 21 +29 +29 жарко 1016.0 1009.0
14 15.06 ЮВ 3 19 км н/о +32.0 +6.9 21 +30 +30 жарко 1015.3 1008.3
15 15.06 ЮВ 5 >70 км ясно +31.0 +10.4 28 +31 +38 жарко 1015.0 1008.0
16 15.06 ЮВ 4 20 км н/о +30.4 +8.7 26 +30 +30 жарко 1014.9 1007.9
17 15.06 ЮВ 4 19 км н/о +30.2 +8.6 26 +30 +30 жарко 1014.8 1007.8
18 15.06 ЮВ 3 >70 км ясно +29.3 +7.8 26 +29 +30 жарко 1015.5 1008.4 +32.2
19 15.06 Ю 2 18 км н/о +28.1 +7.3 27 +27 +27 жарко 1016.0 1008.9
20 15.06 ЮВ 1 19 км н/о +25.6 +6.7 30 +25 +25 комфорт 1016.7 1009.5
21 15.06 СЗ 2 20 км н/о +23.3 +6.1 33 +24 +24 комфорт 1017.8 1010.6
22 15.06 СВ 2 20 км н/о +22.0 +8.5 42 +23 +23 комфорт 1018.5 1011.3
23 15.06 СВ 2 20 км н/о +20.6 +8.6 46 +23 +23 комфорт 1018.8 1011.5
00 16.06 СВ 2 20 км н/о +19.9 +10.9 56 +22 +22 комфорт 1018.8 1011.5
01 16.06 С 2 19 км н/о +19.3 +11.6 61 +21 +21 комфорт 1018.3 1011.0
02 16.06 СЗ 1 19 км н/о +18.4 +10.2 59 +20 +20 1018.1 1010.8
03 16.06 З 2 19 км н/о +18.5 +8.7 53 +20 +20 1017.6 1010.3
04 16.06 ЮЗ 1 19 км н/о +17.4 +8.5 56 +18 +18 1018.1 1010.7
05 16.06 З 2 19 км н/о +16.7 +8.4 58 +17 +17 1018.8 1011.4
06 16.06 З 2 19 км н/о +18.8 +8.2 50 +20 +21 1019.2 1011.9 +16.7
07 16.06 С 2 13 км н/о +21.4 +8.6 44 +23 +23 комфорт 1019.7 1012.4
08 16.06 В 2 9000 м н/о +23.3 +8.9 40 +25 +25 комфорт 1020.0 1012.8
09 16.06 В 3 30 км 9/0
[Ac cast Cs]
+24.2 +12.5 48 +26 +35 жарко 1020.0 1012.8
10 16.06 В 3 13 км н/о +25.1 +13.9 50 +27 +27 жарко 1019.6 1012.4
11 16.06 В 4 14 км н/о +26.1 +14.9 50 +29 +29 жарко 1019.4 1012.3
12 16.06 В 5 30 км 10/1 600 м
[Cu hum Ac cast Cs]
+26.5 +15.2 50 +29 +35 жарко 1019.2 1012.1
13 16.06 СВ 6 19 км н/о +26.0 +14.1 48 +28 +28 жарко 1018.4 1011.3
14 16.06 В 4 18 км н/о +25.2 +15.5 55 +28 +28 жарко 1018.5 1011.3
15 16.06 В 5 30 км 9/1 600 м
[Cu hum Cs]
+24.6 +15.8 58 +28 +33 душно 1018.5 1011.3
16 16.06 В 4 19 км н/о +25.4 +15.4 54 +28 +28 жарко 1018.0 1010.9
17 16.06 В 3 20 км н/о +24.6 +15.0 55 +27 +27 жарко 1018.2 1011.0
18 16.06 В 3 30 км 9/0 1500 м
[Ac As Cs]
+23.5 +15.3 60 +26 +27 жарко 1017.9 1010.7 +26.8
19 16.06 В 2 20 км н/о +22.8 +13.6 56 +26 +26 жарко 1018.2 1011.0
20 16.06 СВ 2 19 км н/о +21.5 +14.6 65 +25 +25 комфорт 1018.4 1011.2
21 16.06 В 2 17 км н/о +21.0 +15.3 70 +25 +25 комфорт 1018.7 1011.4
22 16.06 СВ 1 16 км н/о +20.0 +15.8 77 +24 +24 комфорт 1018.9 1011.6
23 16.06 С 1 10 км н/о +18.8 +14.7 77 +21 +21 комфорт 1018.9 1011.6
00 17.06 СЗ 1 12 км н/о +18.0 +14.7 81 +19 +19 1018.6 1011.3
01 17.06 З 1 12 км н/о +17.0 +14.3 84 +18 +18 1018.4 1011.0
02 17.06 З 1 14 км н/о +17.6 +13.1 75 +19 +19 1018.0 1010.7
03 17.06 З 2 9000 м н/о +16.7 +12.0 74 +17 +17 1017.8 1010.4
04 17.06 ЮЗ 1 16 км н/о +16.7 +11.6 72 +18 +18 1017.7 1010.3
05 17.06 З 2 16 км н/о +16.1 +11.9 76 +16 +16 1017.9 1010.5
06 17.06 З 2 1200 м н/о +16.9 +11.0 68 +17 +18 1018.2 1010.8 +16.1
07 17.06 З 2 4600 м н/о +19.6 +11.1 58 +21 +21 комфорт 1018.2 1010.9
08 17.06 ЮЗ 1 16 км н/о +22.4 +11.8 51 +25 +25 комфорт 1018.0 1010.8
09 17.06 Ю 1 30 км ясно +25.6 +10.6 39 +27 +41 жарко 1017.6 1010.4
10 17.06 ЮВ 1 18 км н/о +28.2 +10.8 34 +29 +29 жарко 1017.1 1010.0
11 17.06 ЮВ 2 16 км н/о +30.3 +9.8 28 +30 +30 жарко 1016.4 1009.4
12 17.06 В 3 50 км ясно +31.7 +8.6 24 +31 +50 жарко 1015.7 1008.7
13 17.06 В 3 20 км н/о +32.6 +8.1 22 +31 +31 жарко 1015.1 1008.1
14 17.06 ЮВ 4 19 км н/о +32.4 +9.8 25 +32 +32 жарко 1014.6 1007.6
15 17.06 ЮВ 3 50 км ясно +32.3 +10.9 27 +32 +32 жарко 1014.3 1007.3
16 17.06 ЮВ 3 20 км н/о +32.1 +9.6 25 +31 +31 жарко 1014.2 1007.2
17 17.06 ЮВ 3 20 км н/о +31.3 +6.4 21 +30 +30 жарко 1014.1 1007.1
18 17.06 ЮВ 4 >70 км ясно +29.4 +9.5 29 +29 +30 жарко 1014.2 1007.2 +33.0
19 17.06 ЮВ 3 20 км н/о +27.9 +10.6 34 +28 +28 жарко 1014.7 1007.6
20 17.06 В 2 20 км н/о +25.2 +11.4 42 +27 +27 жарко 1015.2 1008.1
21 17.06 СВ 4 20 км н/о +22.6 +12.2 52 +25 +25 комфорт 1016.2 1009.0
22 17.06 СВ 4 19 км н/о +21.3 +14.2 64 +24 +24 комфорт 1016.5 1009.3
23 17.06 СВ 2 18 км н/о +20.3 +14.4 69 +23 +23 комфорт 1016.4 1009.1
00 18.06 СВ 2 14 км н/о +19.1 +14.6 75 +21 +21 комфорт 1016.2 1008.9
01 18.06 З 1 15 км н/о +18.9 +13.7 72 +21 +21 комфорт 1015.9 1008.6
02 18.06 штиль 0 13 км н/о +17.4 +13.1 76 +17 +17 1015.3 1008.0
03 18.06 З 1 13 км н/о +16.5 +12.3 76 +17 +17 1015.2 1007.8
04 18.06 СЗ 1 14 км н/о +16.6 +11.9 74 +17 +17 1015.3 1007.9
05 18.06 ЮЗ 1 14 км н/о +16.3 +11.9 75 +18 +18 1015.6 1008.2
06 18.06 З 2 20 км 3/1 100 м
[St Cc]
+18.3 +11.1 63 +19 +20 1015.9 1008.6 +16.2
07 18.06 З 1 19 км н/о +20.6 +10.4 52 +24 +24 комфорт 1015.9 1008.6
08 18.06 ЮЗ 1 19 км н/о +23.3 +11.0 46 +26 +26 жарко 1015.7 1008.5
09 18.06 В 2 20 км 1/0
[Cc]
+26.4 +11.7 40 +28 +40 жарко 1015.3 1008.2
10 18.06 В 2 19 км н/о +28.1 +12.4 38 +29 +29 жарко 1015.2 1008.1
11 18.06 В 4 19 км н/о +29.9 +13.2 36 +31 +31 жарко 1014.7 1007.7
12 18.06 ЮВ 3 25 км ясно +31.0 +12.4 32 +32 +51 опасность
солнечного
удара
1014.4 1007.4
13 18.06 В 3 20 км н/о +31.5 +14.2 35 +33 +33 жарко 1013.5 1006.5
14 18.06 ЮВ 3 20 км н/о +31.9 +11.7 29 +32 +32 жарко 1012.9 1005.9
15 18.06 ЮВ 4 20 км ясно +32.1 +9.0 24 +31 +41 жарко 1012.6 1005.6
16 18.06 ЮВ 4 20 км н/о +32.1 +9.6 25 +31 +31 жарко 1012.4 1005.4
17 18.06 ЮВ 3 20 км н/о +31.3 +7.0 22 +30 +30 жарко 1012.2 1005.2
18 18.06 ЮВ 2 20 км н/о +30.2 +9.1 27 +30 +30 жарко 1012.3 1005.3 +32.7
19 18.06 СВ 5 20 км н/о +26.5 +13.3 44 +28 +28 жарко 1012.7 1005.6
20 18.06 СВ 5 20 км н/о +24.2 +15.4 58 +27 +27 жарко 1013.3 1006.2
21 18.06 СВ 4 19 км н/о +22.6 +16.2 67 +27 +27 душно 1014.2 1007.0
22 18.06 В 3 17 км н/о +21.8 +17.0 74 +26 +26 душно 1014.5 1007.3
23 18.06 СВ 2 15 км н/о +20.9 +16.9 78 +25 +25 комфорт 1014.4 1007.2
00 19.06 В 1 13 км н/о +20.4 +17.0 81 +25 +25 комфорт 1014.2 1007.0
01 19.06 ЮЗ 2 10 км н/о +20.2 +15.8 76 +24 +24 комфорт 1013.9 1006.7
02 19.06 З 2 11 км н/о +19.9 +15.9 78 +23 +23 комфорт 1013.7 1006.5
03 19.06 З 2 13 км н/о +19.6 +15.5 77 +22 +22 комфорт 1013.7 1006.4
04 19.06 ЮЗ 2 14 км н/о +19.5 +14.9 75 +22 +22 комфорт 1013.8 1006.5

 

Местоположение метеостанции Мурсия (Испания): широта 38.00 долгота -1.17 высота над уровнем моря 62 м.

В архиве по умолчанию представлена погода в Мурсие за последнюю неделю. Архивные данные за месяц целиком и за предыдущие месяцы, начиная с января 2011 года, Вы можете получить, выбрав интересующий диапазон дат из раскрывающегося списка и нажав кнопку "Ввод!".


*Определитесь, кто Вы:
робот инопланетянин человек

Внимание! Время в таблицах - всемирное. Для получения местного времени необходимо прибавить поправку, которая равна 1 ч.

Смотрите также архив погоды в соседних городах и на ближайших метеорологических станциях:

Погода в Мурсия аэропорту (Испания) (8 км)
Погода в Сьеса - Парк де Бомберос (Испания) (31 км)
Погода в Сан-Хавьере (Испания) (41 км)
Погода в Пиносо (Испания) (46 км)
Погода в Картахене (Испания) (47 км)
Погода в Лорке (Испания) (60 км)
Погода в Аликанте аэропорту (Испания) (63 км)
Погода в Каравака - Фуэнтес Дель (Испания) (63 км)
Погода в Екле (Испания) (67 км)
Погода в Аликанте (Испания) (72 км)

Пояснения к столбцам:

Ветер - указаны скорость ветра в м/с - средняя за 10 мин, порывы в срок и между сроками (в фигурных скобках) и направление, откуда дует ветер: С - северный, СВ - северо-восточный, В - восточный, ЮВ - юго-восточный, Ю - южный, ЮЗ - юго-западный, З - западный, СЗ - северо-западный.
Видимость - горизонтальная дальность видимости в метрах или километрах. При видимости от 1 до 10 км при отсутствии осадков обычно наблюдается дымка, при ухудшении видимости до 1 км и менее - туман. В сухую погоду видимость может ухудшаться дымом, пылью или мглою.
Явления - указаны атмосферные явления, наблюдавшиеся в срок или в последний час перед сроком; фигурными скобками обозначены явления, наблюдавшиеся между сроками (за 1-3 часа до срока); квадратными скобками обозначены град или гололедные отложения с указанием их диаметра в мм.
Облачность - указаны через наклонную черту общая и нижняя облачность в баллах и высота нижней границы облаков в метрах; квадратными скобками обозначены формы облаков: Ci - перистые, Cs - перисто-слоистые, Cc - перисто-кучевые, Ac - высококучевые, As - высокослоистые, Sc - слоисто-кучевые, Ns - слоисто-дождевые, Cu - кучевые, Cb - кучево-дождевые. Подробнее классификацию облаков см. в Атласе облаков (PDF).
T - Температура воздуха - температура, измеренная на высоте 2 м над землей.
Td - Температура точки росы - температура, при понижении до которой содержащийся в воздухе водяной пар достигнет насыщения.
f - Относительная влажность воздуха - влажноcть воздуха, измеренная на высоте 2 м над землей.
Te - Эффективная температура - температура, которую ощущает одетый по сезону человек в тени. Характеристика душности погоды. При расчете учитывается влияние влажности воздуха и скорости ветра на теплоощущения человека.
Tes - Эффективная температура на солнце - температура, которую ощущает человек, с поправкой на солнечный нагрев. Характеристика знойности погоды. Зависит от высоты солнца над горизонтом, облачности и скорости ветра. Ночью, в пасмурную погоду, а также при ветре 12 м/с и более поправка равна нулю.
P - Атмосферное давление - приведенное к уровню моря атмосферное давление.
Po - Атмосферное давление - измеренное на уровне метеостанции атмосферное давление.
Tmin - Минимальная температура - минимум температуры воздуха на высоте 2 м над землей.
Tmax - Максимальная температура - максимум температуры воздуха на высоте 2 м над землей.
R - Количество осадков - Количество выпавших осадков за период времени, мм. При наведении курсора мыши на число - период времени, за который выпало указанное количество осадков.
R24 - Количество осадков - Количество выпавших осадков за 24 часа, мм.
S - Снежный покров - Высота снежного покрова, см. При наведении курсора мыши на число - состояние снежного покрова и степень покрытия местности в баллах.